�N����,����,�~����,�C��,���x,�C��,����,���ϕ���,�ő�u�ԕ���,�ő厞����,���˗�,�I�_���x,�n�����x,�ő啗���N��,DTYPE
"19/04/22","00:10",0.0,16.8,76.1,1007.4,303.9,2.2,5.0,334.7,0.00,12.6,16.0,"00:00:56",1
"19/04/22","00:20",0.0,16.5,77.7,1007.8,317.4,2.2,3.4,332.1,0.00,12.6,15.9,"00:17:44",1
"19/04/22","00:30",0.0,16.6,78.2,1008.1,323.7,2.6,4.5,324.3,0.00,12.8,16.2,"00:26:08",1
"19/04/22","00:40",0.0,16.7,78.1,1008.1,323.1,2.6,4.7,338.7,0.00,12.9,16.1,"00:32:56",1
"19/04/22","00:50",0.0,16.6,78.2,1008.1,327.0,2.8,4.0,344.8,0.00,12.8,16.0,"00:42:40",1
"19/04/22","01:00",0.0,16.4,78.6,1008.1,330.5,2.8,4.2,333.1,0.00,12.7,15.9,"00:52:56",1
"19/04/22","01:10",0.0,16.3,79.1,1007.8,336.3,2.5,3.5,332.4,0.00,12.7,15.7,"01:07:52",1
"19/04/22","01:20",0.0,16.4,79.4,1007.6,328.8,2.7,3.9,335.5,0.00,12.9,15.7,"01:12:48",1
"19/04/22","01:30",0.0,16.5,79.1,1007.8,325.1,3.0,4.4,334.3,0.00,12.9,16.0,"01:25:52",1
"19/04/22","01:40",0.0,16.4,78.9,1007.6,331.9,3.1,4.3,331.3,0.00,12.8,15.7,"01:31:04",1
"19/04/22","01:50",0.0,16.4,78.8,1007.8,328.7,3.4,5.1,339.9,0.00,12.8,15.6,"01:48:56",1
"19/04/22","02:00",0.0,16.2,78.8,1007.8,326.7,2.7,4.8,336.3,0.00,12.6,15.7,"01:53:12",1
"19/04/22","02:10",0.0,15.9,79.3,1007.6,334.7,2.2,4.3,339.3,0.00,12.4,15.5,"02:00:42",1
"19/04/22","02:20",0.0,15.9,80.8,1007.8,337.4,2.3,4.3,340.5,0.00,12.6,15.7,"02:18:56",1
"19/04/22","02:30",0.0,16.0,81.1,1007.6,330.8,2.1,3.2,320.8,0.00,12.8,15.4,"02:29:04",1
"19/04/22","02:40",0.0,16.2,80.7,1007.8,330.0,2.6,3.9,319.4,0.00,12.9,15.5,"02:35:04",1
"19/04/22","02:50",0.0,16.3,80.4,1007.6,334.5,2.2,3.7,351.7,0.00,13.0,15.6,"02:47:20",1
"19/04/22","03:00",0.0,16.3,80.3,1007.4,332.4,2.0,3.2,343.3,0.00,12.9,15.6,"02:51:12",1
"19/04/22","03:10",0.0,16.2,79.6,1007.6,334.1,2.0,3.1,321.9,0.00,12.7,15.5,"03:01:44",1
"19/04/22","03:20",0.0,15.8,80.0,1007.6,334.7,1.5,2.8,342.2,0.00,12.4,15.5,"03:14:56",1
"19/04/22","03:30",0.0,15.5,81.1,1007.8,330.1,1.6,2.2,330.9,0.00,12.3,15.4,"03:26:32",1
"19/04/22","03:40",0.0,15.4,81.7,1007.6,334.6,1.7,2.5,340.3,0.00,12.3,15.4,"03:35:12",1
"19/04/22","03:50",0.0,15.2,82.1,1007.6,330.4,1.7,2.9,331.0,0.00,12.2,15.4,"03:45:12",1
"19/04/22","04:00",0.0,14.9,83.2,1007.6,326.3,1.5,2.2,329.4,0.00,12.1,15.4,"03:53:44",1
"19/04/22","04:10",0.0,14.8,83.9,1007.6,333.3,1.6,2.5,340.4,0.00,12.1,15.4,"04:06:48",1
"19/04/22","04:20",0.0,14.7,84.0,1007.4,331.6,1.8,2.8,341.3,0.00,12.1,15.2,"04:12:48",1
"19/04/22","04:30",0.0,14.6,84.6,1007.4,333.5,1.8,2.8,342.0,0.00,12.1,15.2,"04:26:48",1
"19/04/22","04:40",0.0,14.5,85.4,1007.6,326.0,1.6,2.5,331.3,0.00,12.1,15.1,"04:30:16",1
"19/04/22","04:50",0.0,14.8,85.9,1007.6,329.9,1.8,3.5,321.9,0.00,12.5,15.1,"04:47:52",1
"19/04/22","05:00",0.0,15.1,85.0,1008.1,327.2,2.3,4.2,341.9,0.00,12.6,15.0,"04:58:24",1
"19/04/22","05:10",0.0,15.2,84.5,1008.1,328.1,2.2,3.9,335.8,0.00,12.6,15.0,"05:03:44",1
"19/04/22","05:20",0.0,15.3,84.1,1007.8,326.6,2.7,4.2,340.1,0.00,12.7,15.0,"05:15:28",1
"19/04/22","05:30",0.0,15.3,83.8,1008.1,331.4,2.7,4.2,330.1,0.00,12.6,15.2,"05:26:40",1
"19/04/22","05:40",0.0,15.3,83.5,1008.1,332.9,3.4,5.4,315.4,0.00,12.6,15.1,"05:32:32",1
"19/04/22","05:50",0.0,15.3,83.3,1008.3,330.0,3.1,4.5,333.8,0.00,12.5,14.9,"05:46:24",1
"19/04/22","06:00",0.0,15.2,83.8,1008.1,332.7,2.8,4.4,322.9,0.00,12.5,14.9,"05:56:48",1
"19/04/22","06:10",0.0,15.2,84.4,1007.8,332.1,2.7,4.1,342.3,0.00,12.6,14.9,"06:00:08",1
"19/04/22","06:20",0.0,15.3,84.6,1008.6,330.6,3.1,4.8,326.3,0.00,12.8,15.0,"06:16:58",1
"19/04/22","06:30",0.0,15.4,84.4,1008.6,326.2,2.8,4.2,330.9,0.00,12.8,15.0,"06:22:56",1
"19/04/22","06:40",0.0,15.5,83.9,1008.6,329.7,2.3,3.6,331.8,0.01,12.8,15.0,"06:32:24",1
"19/04/22","06:50",0.0,15.5,83.7,1008.8,329.2,3.0,4.8,335.2,0.02,12.8,15.1,"06:42:48",1
"19/04/22","07:00",0.0,15.6,83.4,1009.0,330.0,2.3,3.9,331.6,0.02,12.8,14.9,"06:52:56",1
"19/04/22","07:10",0.0,15.7,83.1,1009.0,331.7,1.8,3.5,330.3,0.03,12.9,15.0,"07:02:00",1
"19/04/22","07:20",0.0,15.9,82.7,1009.3,319.4,2.0,3.6,328.7,0.04,13.0,15.0,"07:18:24",1
"19/04/22","07:30",0.0,16.1,82.1,1009.3,320.2,2.3,3.6,332.3,0.05,13.1,15.1,"07:20:32",1
"19/04/22","07:40",0.0,16.3,81.3,1009.0,318.9,2.5,3.9,338.1,0.07,13.1,15.0,"07:37:36",1
"19/04/22","07:50",0.0,16.6,80.3,1009.3,315.7,2.0,4.0,335.8,0.08,13.2,15.2,"07:40:02",1
"19/04/22","08:00",0.0,17.1,78.6,1009.3,302.1,1.7,4.2,338.9,0.11,13.4,15.3,"07:50:16",1
"19/04/22","08:10",0.0,18.1,74.7,1009.3,297.9,2.0,2.9,288.4,0.18,13.6,15.3,"08:02:24",1
"19/04/22","08:20",0.0,19.0,71.3,1009.5,293.5,1.7,2.8,322.3,0.23,13.7,15.2,"08:12:00",1
"19/04/22","08:30",0.0,19.0,70.1,1009.5,307.3,1.7,3.4,330.0,0.21,13.5,15.7,"08:26:08",1
"19/04/22","08:40",0.0,19.5,68.9,1009.5,314.5,2.5,6.0,343.7,0.26,13.7,15.6,"08:38:32",1
"19/04/22","08:50",0.0,19.3,66.4,1009.3,331.7,2.3,6.4,352.6,0.22,12.9,15.8,"08:48:16",1
"19/04/22","09:00",0.0,19.3,66.1,1009.3,346.2,2.0,3.5,356.5,0.17,12.9,15.7,"08:58:48",1
"19/04/22","09:10",0.0,19.1,66.9,1009.5,350.2,2.3,4.9,350.1,0.17,12.9,16.0,"09:07:28",1
"19/04/22","09:20",0.0,19.9,64.3,1009.3,356.8,2.2,6.5,333.0,0.31,13.0,15.9,"09:13:44",1
"19/04/22","09:30",0.0,20.7,61.9,1009.5,7.5,2.0,4.1,11.1,0.37,13.2,16.2,"09:27:52",1
"19/04/22","09:40",0.0,20.4,61.0,1009.0,23.0,1.3,3.6,349.1,0.34,12.7,16.3,"09:33:20",1
"19/04/22","09:50",0.0,20.3,62.6,1009.0,299.5,0.7,2.6,5.5,0.26,13.0,16.5,"09:40:40",1
"19/04/22","10:00",0.0,20.8,62.1,1009.0,304.9,1.2,2.8,347.5,0.45,13.3,16.7,"09:55:44",1
"19/04/22","10:10",0.0,21.9,58.0,1008.8,299.0,0.8,3.7,343.5,0.48,13.3,16.9,"10:03:12",1
"19/04/22","10:20",0.0,22.0,57.7,1009.0,241.6,1.1,3.1,284.1,0.51,13.3,17.1,"10:10:16",1
"19/04/22","10:30",0.0,21.8,57.3,1008.6,232.0,1.5,3.1,219.2,0.47,13.0,17.3,"10:27:04",1
"19/04/22","10:40",0.0,22.1,55.7,1008.3,273.1,1.3,3.1,270.7,0.42,12.9,17.6,"10:37:44",1
"19/04/22","10:50",0.0,21.6,57.2,1008.3,261.0,1.8,3.9,305.3,0.21,12.8,17.6,"10:45:12",1
"19/04/22","11:00",0.0,22.1,58.8,1008.8,337.0,1.8,4.1,351.7,0.28,13.7,17.8,"10:52:08",1
"19/04/22","11:10",0.0,22.8,55.9,1008.3,321.3,1.6,2.9,313.6,0.45,13.6,18.0,"11:05:44",1
"19/04/22","11:20",0.0,22.9,54.0,1008.3,226.9,2.1,4.4,221.3,0.52,13.1,18.0,"11:19:04",1
"19/04/22","11:30",0.0,23.0,54.4,1008.1,241.6,2.0,5.5,218.7,0.57,13.4,18.2,"11:29:04",1
"19/04/22","11:40",0.0,23.6,53.4,1008.3,214.3,2.1,4.8,227.5,0.57,13.6,18.6,"11:32:00",1
"19/04/22","11:50",0.0,23.9,51.5,1007.6,153.0,1.2,3.2,234.4,0.57,13.3,18.9,"11:41:28",1
"19/04/22","12:00",0.0,24.9,50.4,1007.1,39.1,1.7,5.4,356.8,0.60,13.9,19.2,"11:55:12",1
"19/04/22","12:10",0.0,25.3,52.4,1006.9,1.7,2.0,4.4,0.2,0.61,14.9,19.3,"12:00:48",1
"19/04/22","12:20",0.0,24.5,49.0,1007.4,339.3,3.1,5.2,348.0,0.57,13.1,19.6,"12:18:16",1
"19/04/22","12:30",0.0,25.1,50.1,1007.1,342.9,2.8,6.7,349.5,0.57,14.0,19.7,"12:23:20",1
"19/04/22","12:40",0.0,24.8,50.8,1006.7,359.5,2.7,5.8,320.5,0.60,14.0,20.0,"12:37:28",1
"19/04/22","12:50",0.0,24.7,50.6,1006.9,355.7,3.1,5.6,340.6,0.59,13.8,19.9,"12:49:52",1
"19/04/22","13:00",0.0,24.3,48.1,1006.7,1.7,2.5,5.1,354.3,0.58,12.7,20.2,"12:58:08",1
"19/04/22","13:10",0.0,24.5,51.1,1007.1,346.4,3.5,7.3,352.5,0.57,13.8,20.3,"13:09:32",1
"19/04/22","13:20",0.0,24.4,51.7,1007.4,341.1,4.1,7.3,341.0,0.57,13.9,20.4,"13:17:12",1
"19/04/22","13:30",0.0,24.3,50.0,1007.4,345.0,4.1,7.3,344.8,0.56,13.3,20.5,"13:21:52",1
"19/04/22","13:40",0.0,24.4,50.8,1007.6,340.9,3.9,7.0,347.5,0.55,13.6,20.6,"13:33:04",1
"19/04/22","13:50",0.0,24.3,50.5,1007.4,341.6,4.0,8.1,343.5,0.54,13.4,20.7,"13:47:36",1
"19/04/22","14:00",0.0,24.3,48.3,1007.1,345.5,3.7,7.0,339.3,0.53,12.7,20.8,"13:59:52",1
"19/04/22","14:10",0.0,24.3,48.3,1007.4,342.0,4.0,8.1,343.0,0.52,12.7,20.7,"14:05:36",1
"19/04/22","14:20",0.0,24.7,48.4,1007.6,345.4,3.6,7.9,352.5,0.51,13.1,20.8,"14:10:48",1
"19/04/22","14:30",0.0,24.4,48.9,1007.1,343.0,4.4,9.4,329.1,0.49,13.0,20.8,"14:20:02",1
"19/04/22","14:40",0.0,24.4,48.1,1006.9,342.7,3.9,8.0,340.6,0.48,12.8,20.8,"14:38:56",1
"19/04/22","14:50",0.0,24.7,45.7,1006.9,348.1,3.4,5.8,334.2,0.46,12.3,20.6,"14:44:24",1
"19/04/22","15:00",0.0,24.6,47.3,1006.7,336.6,3.7,5.8,346.3,0.44,12.7,21.0,"14:50:40",1
"19/04/22","15:10",0.0,24.7,46.1,1006.4,345.3,3.9,6.7,343.4,0.43,12.4,20.9,"15:06:40",1
"19/04/22","15:20",0.0,24.6,44.2,1006.4,344.1,3.6,6.7,343.9,0.41,11.7,21.0,"15:15:44",1
"19/04/22","15:30",0.0,24.6,45.4,1006.2,339.0,3.9,6.7,345.0,0.39,12.1,20.9,"15:22:34",1
"19/04/22","15:40",0.0,24.9,45.9,1006.4,339.5,3.5,6.0,345.5,0.37,12.5,21.1,"15:31:04",1
"19/04/22","15:50",0.0,24.7,45.3,1006.4,340.9,3.7,7.2,325.9,0.34,12.1,20.8,"15:49:44",1
"19/04/22","16:00",0.0,24.9,42.4,1006.7,342.2,4.4,8.1,341.8,0.32,11.3,20.9,"15:50:56",1
"19/04/22","16:10",0.0,24.4,43.6,1006.9,341.9,4.4,9.5,334.4,0.30,11.3,20.9,"16:06:16",1
"19/04/22","16:20",0.0,24.3,44.0,1006.9,340.1,4.2,7.8,348.7,0.28,11.3,21.0,"16:18:08",1
"19/04/22","16:30",0.0,24.3,43.2,1007.1,346.3,4.0,7.5,342.5,0.25,11.0,20.5,"16:27:20",1
"19/04/22","16:40",0.0,24.0,43.5,1007.1,346.7,3.5,7.3,339.3,0.23,10.9,20.5,"16:39:36",1
"19/04/22","16:50",0.0,23.6,44.4,1007.4,340.7,4.9,8.9,333.5,0.20,10.8,20.4,"16:47:52",1
"19/04/22","17:00",0.0,23.2,45.6,1007.6,343.2,4.9,9.6,342.2,0.18,10.9,20.3,"16:59:44",1
"19/04/22","17:10",0.0,22.9,46.1,1007.6,344.5,4.5,7.3,337.5,0.15,10.8,20.1,"17:05:12",1
"19/04/22","17:20",0.0,22.9,45.4,1007.6,345.7,3.6,6.7,350.7,0.13,10.5,19.9,"17:14:40",1
"19/04/22","17:30",0.0,22.7,46.1,1007.8,345.6,3.1,5.7,345.4,0.11,10.6,19.9,"17:24:32",1
"19/04/22","17:40",0.0,22.5,45.3,1008.1,350.3,2.5,4.8,336.1,0.08,10.1,20.0,"17:32:48",1
"19/04/22","17:50",0.0,22.0,46.5,1008.3,347.9,2.7,6.4,331.6,0.06,10.1,19.8,"17:41:12",1
"19/04/22","18:00",0.0,21.5,46.9,1008.3,345.9,2.6,6.4,338.1,0.04,9.7,19.7,"17:58:08",1
"19/04/22","18:10",0.0,21.0,48.5,1008.6,344.3,3.1,5.6,3.9,0.03,9.8,19.7,"18:02:24",1
"19/04/22","18:20",0.0,20.4,50.5,1008.6,337.9,2.7,5.7,332.8,0.01,9.8,19.6,"18:14:16",1
"19/04/22","18:30",0.0,20.0,51.9,1008.8,341.8,2.6,4.9,347.9,0.00,9.9,19.3,"18:29:52",1
"19/04/22","18:40",0.0,19.6,53.6,1009.0,345.4,2.6,4.5,332.2,0.00,10.0,19.2,"18:34:32",1
"19/04/22","18:50",0.0,19.2,54.8,1008.8,337.6,3.4,6.0,335.2,0.00,9.9,19.2,"18:49:36",1
"19/04/22","19:00",0.0,18.9,56.0,1008.8,330.5,4.6,8.0,334.5,0.00,10.0,18.8,"18:59:28",1
"19/04/22","19:10",0.0,18.4,57.6,1009.5,329.6,4.7,8.1,348.1,0.00,9.9,18.8,"19:07:44",1
"19/04/22","19:20",0.0,18.1,59.7,1009.5,332.7,4.5,9.1,335.6,0.00,10.2,18.5,"19:10:56",1
"19/04/22","19:30",0.0,17.7,61.3,1010.0,329.6,4.0,7.3,327.2,0.00,10.2,18.7,"19:27:12",1
"19/04/22","19:40",0.0,17.5,62.6,1009.7,334.2,4.6,9.1,331.0,0.00,10.3,18.4,"19:36:32",1
"19/04/22","19:50",0.0,17.2,63.2,1010.0,331.7,5.7,8.2,337.0,0.00,10.2,18.3,"19:45:28",1
"19/04/22","20:00",0.0,16.9,63.6,1010.2,333.0,5.7,8.5,329.3,0.00,10.0,18.2,"19:55:36",1
"19/04/22","20:10",0.0,16.7,63.7,1010.4,335.8,5.1,7.4,330.1,0.00,9.8,18.1,"20:01:12",1
"19/04/22","20:20",0.0,16.5,64.0,1010.7,336.1,4.2,7.2,344.1,0.00,9.7,18.1,"20:19:12",1
"19/04/22","20:30",0.0,16.3,64.1,1010.9,346.3,2.6,4.5,357.4,0.00,9.5,17.7,"20:21:04",1
"19/04/22","20:40",0.0,16.1,63.3,1010.9,347.3,2.6,5.0,343.6,0.00,9.2,17.6,"20:35:12",1
"19/04/22","20:50",0.0,15.8,63.3,1011.4,340.0,2.5,4.1,338.6,0.00,8.9,17.6,"20:40:16",1
"19/04/22","21:00",0.0,15.4,64.8,1011.2,335.8,3.0,4.3,341.2,0.00,8.9,17.4,"20:59:52",1
"19/04/22","21:10",0.0,15.4,65.1,1011.4,333.9,3.4,4.9,323.8,0.00,8.9,17.2,"21:09:54",1
"19/04/22","21:20",0.0,15.5,65.7,1011.2,329.8,4.1,6.8,342.3,0.00,9.2,17.2,"21:15:04",1
"19/04/22","21:30",0.0,15.2,66.1,1011.2,330.5,3.0,4.5,342.6,0.00,9.0,17.1,"21:27:14",1
"19/04/22","21:40",0.0,15.1,65.5,1011.6,333.3,2.1,3.6,334.4,0.00,8.7,16.9,"21:30:16",1
"19/04/22","21:50",0.0,15.0,65.3,1011.4,326.2,2.1,3.2,319.5,0.00,8.6,17.2,"21:42:56",1
"19/04/22","22:00",0.0,14.7,65.2,1011.4,331.5,2.8,4.3,339.0,0.00,8.3,16.9,"21:58:24",1
"19/04/22","22:10",0.0,14.5,65.4,1011.4,335.6,2.8,4.7,345.3,0.00,8.1,16.7,"22:09:36",1
"19/04/22","22:20",0.0,14.2,66.1,1012.1,335.0,2.2,3.2,345.8,0.00,8.0,16.7,"22:10:32",1
"19/04/22","22:30",0.0,13.8,66.7,1011.4,312.1,1.8,3.3,325.8,0.00,7.8,16.5,"22:27:20",1
"19/04/22","22:40",0.0,13.7,67.8,1011.6,314.6,2.2,4.1,338.5,0.00,7.9,16.3,"22:39:28",1
"19/04/22","22:50",0.0,13.7,68.4,1012.1,326.0,2.8,4.4,333.9,0.00,8.0,16.2,"22:48:56",1
"19/04/22","23:00",0.0,13.6,68.4,1011.6,320.8,2.5,4.2,332.8,0.00,7.9,16.2,"22:51:04",1
"19/04/22","23:10",0.0,13.4,68.7,1011.9,312.6,1.8,2.9,337.3,0.00,7.8,15.9,"23:06:08",1
"19/04/22","23:20",0.0,13.5,68.6,1011.6,326.7,3.1,4.7,339.0,0.00,7.9,16.1,"23:15:36",1
"19/04/22","23:30",0.0,13.4,68.9,1011.9,324.1,2.2,4.1,317.4,0.00,7.9,16.0,"23:29:30",1
"19/04/22","23:40",0.0,13.3,69.6,1011.9,337.8,3.1,5.2,340.0,0.00,7.9,15.8,"23:35:04",1
"19/04/22","23:50",0.0,13.3,69.7,1012.1,327.9,2.8,5.9,326.4,0.00,7.9,15.7,"23:43:06",1
"19/04/22","24:00",0.0,13.1,69.7,1011.9,330.0,2.7,4.3,336.9,0.00,7.7,15.8,"23:57:24",1
